Home   Weather   Taunusstein   Past weeks

Flag for Germany Past Weather in Taunusstein, Hesse, Germany — Yesterday and Last 2 Weeks

Now
28 °F

Ice fog.


Feels Like: 28 °F
Forecast: 29 / 36 °F
Wind: No wind

Location: Wiesbaden Airport

Current Time: Dec 5, 2016 at 10:01:28 pm

Latest Report: Dec 5, 2016 at 8:58 pm


Visibility: 3 mi

Pressure: 30.44 "Hg

Humidity: 93%

Dew Point: 27 °F

Location of TaunussteinLocation

Past Weather in Taunusstein — Graph

°F

Taunusstein Temperature Yesterday

Maximum temperature yesterday: 37 °F (at 1:58 pm)
Minimum temperature yesterday: 25 °F (at 2:58 am)
Average temperature yesterday: 31 °F

High & Low Weather Summary for the Past Weeks

 TemperatureHumidityPressure
High57 °F (Nov 24, 11:58 am)100% (Nov 22, 6:58 am)30.59 "Hg (Nov 22, 6:58 am)
Low22 °F (Nov 30, 6:58 am)49% (Nov 28, 3:58 pm)29.63 "Hg (Nov 21, 5:58 pm)
Average40 °F77%30.20 "Hg
* Reported Nov 20 8:58 pm — Dec 5 8:58 pm, Taunusstein, Weather by CustomWeather, © 2016

Note: Actual official high and low records may vary slightly from our data, if they occured in-between our weather recording intervals... More about our weather records

Advertising

Taunusstein Weather History for the Previous 24 Hours

Scroll right to see more
 ConditionsComfort  
Time TempWeatherWind HumidityBarometerVisibility
8:58 pm
Mon, Dec 5
28 °FIce fog.No wind93%30.44 "Hg3 mi
7:58 pm28 °FIce fog.No wind93%30.42 "Hg4 mi
6:58 pm28 °FIce fog.No wind93%30.42 "Hg4 mi
6:02 pm28 °FIce fog.No wind93%30.38 "Hg5 mi
4:58 pm29 °FLow clouds.No wind88%30.42 "HgN/A
3:58 pm29 °FIce fog.No wind87%30.41 "Hg6 mi
2:58 pm29 °FOvercast.No wind85%30.40 "HgN/A
1:58 pm28 °FOvercast.No wind86%30.40 "HgN/A
12:58 pm29 °FOvercast.5 mph83%30.40 "HgN/A
11:58 am28 °FOvercast.3 mph86%30.41 "HgN/A
10:58 am28 °FOvercast.3 mph86%30.41 "HgN/A
9:58 am28 °FSunny.3 mph86%30.41 "HgN/A
8:58 am27 °FSunny.5 mph86%30.40 "HgN/A
7:58 am27 °FClear.6 mph80%30.40 "HgN/A
6:58 am28 °FClear.No wind74%30.38 "HgN/A
5:58 am27 °FClear.No wind80%30.38 "HgN/A
4:58 am28 °FClear.No wind74%30.38 "HgN/A
3:58 am28 °FClear.5 mph74%30.38 "HgN/A
2:58 am29 °FClear.5 mph69%30.39 "HgN/A
1:58 am31 °FClear.7 mph66%30.38 "HgN/A
12:58 am29 °FClear.6 mph67%30.38 "HgN/A
11:58 pm
Sun, Dec 4
28 °FClear.5 mph69%30.39 "HgN/A
10:58 pm30 °FClear.5 mph64%30.40 "HgN/A
Weather by CustomWeather, © 2016

See weather overviewHow to use our weather pages